Theta_e
337 335 334 335 336 335 334 331 328 324 324 326 327 327 329 330 329 328 329 330 331 331 330 329 330 330 331 332 333 333 334 333 329 325 322 322 325 326 327 327 327 327 327 329 329 328 328 327 327 327 328 326 325 329 329 328 329 328 326 323 318 315
338 336 334 335 335 335 334 332 329 327 327 328 329 330 332 333 331 330 331 332 332 332 331 330 331 331 331 332 333 333 334 333 332 329 322 319 322 325 326 327 327 327 327 329 330 330 330 329 329 329 329 327 327 330 328 328 331 330 329 327 320 318
338 336 335 335 335 334 334 332 328 329 329 330 332 333 334 334 332 331 333 334 334 334 333 330 330 331 331 331 331 331 329 326 326 326 323 319 319 321 325 327 328 327 327 328 329 330 331 331 330 329 329 329 330 330 326 328 332 332 331 329 324 321
339 336 337 337 335 335 334 331 328 330 331 331 333 334 334 334 333 333 334 334 334 335 333 329 328 327 326 326 325 322 320 318 318 322 322 321 320 320 322 324 325 326 327 329 329 330 332 332 331 330 330 330 331 329 326 329 332 332 331 330 328 325
339 338 338 336 336 336 334 332 330 331 333 333 334 334 333 333 335 334 332 332 332 333 334 332 330 330 327 324 321 320 320 318 317 317 318 320 321 320 322 323 322 325 328 330 331 331 332 331 330 330 331 332 331 329 328 330 331 331 330 329 328 328
340 340 339 336 336 335 333 333 331 330 332 333 334 333 332 334 335 332 332 333 332 333 335 334 334 334 331 328 326 325 325 323 320 318 319 322 322 321 323 322 324 328 330 330 331 331 331 331 330 329 332 332 331 331 331 332 330 330 329 328 329 329
340 341 340 338 336 335 333 333 330 329 331 332 334 334 333 335 334 332 332 332 332 334 336 334 333 333 331 329 329 328 326 325 323 322 324 325 322 321 320 320 325 329 330 330 330 330 330 330 330 330 332 333 332 332 332 332 331 330 329 327 329 329
340 340 340 339 337 335 334 332 329 330 333 333 334 334 334 335 334 332 330 329 331 334 335 333 332 332 330 328 328 328 328 326 325 324 325 326 323 322 321 321 324 327 329 330 329 329 330 330 330 331 332 334 333 333 332 332 331 330 331 330 330 329
340 339 340 339 337 337 335 330 328 331 333 333 335 335 335 336 334 332 329 328 330 332 333 332 332 332 329 327 327 327 327 326 326 325 325 325 324 324 323 322 323 327 329 330 329 329 330 330 329 331 333 333 334 334 333 332 331 331 333 333 331 329
339 340 339 338 336 336 334 329 329 331 332 334 336 335 335 336 335 331 329 328 330 332 332 331 330 330 329 329 329 329 328 326 326 326 326 325 325 325 325 324 326 330 330 330 330 328 329 330 330 331 332 333 334 334 334 333 333 333 334 334 332 330
338 338 337 337 336 335 333 330 330 331 333 335 335 334 335 336 334 331 328 329 332 332 330 328 329 329 330 331 330 330 330 329 327 327 328 327 327 328 326 326 327 329 330 330 330 328 329 331 331 331 332 333 334 334 334 334 334 333 334 333 332 331
336 336 336 337 336 334 333 331 330 332 335 335 333 333 334 334 332 330 328 330 332 330 327 327 329 329 330 331 330 331 331 330 328 328 329 328 328 329 328 328 327 326 327 328 329 329 330 332 333 333 332 333 333 334 334 334 333 333 333 333 333 330
336 336 336 336 335 334 333 330 330 333 335 333 332 333 332 332 332 330 328 329 330 329 328 328 329 330 330 330 331 331 330 329 329 328 328 328 328 327 328 329 327 327 327 327 329 330 330 331 331 331 332 333 332 333 333 333 333 333 332 332 332 330
336 336 336 335 334 335 334 331 330 332 333 332 332 333 332 332 332 329 327 329 329 328 328 328 328 329 329 329 330 330 329 329 329 329 327 327 328 326 327 329 329 328 328 328 330 329 331 332 331 330 331 331 330 330 330 332 333 332 331 330 330 329
337 337 336 335 334 334 333 331 329 330 331 331 332 333 333 333 331 329 328 328 328 328 328 328 327 328 328 328 329 329 328 327 328 328 327 327 328 326 325 328 329 329 328 328 329 328 330 331 331 330 328 327 328 328 329 331 331 331 330 327 327 327
336 337 336 335 335 334 333 332 329 329 330 332 334 334 333 333 332 329 327 327 328 327 328 328 328 328 328 327 327 327 328 328 327 328 327 327 327 325 324 325 326 328 329 329 329 328 328 328 328 328 326 327 328 328 330 331 331 329 327 325 325 327
335 336 336 335 335 333 333 332 330 330 330 332 334 334 333 334 335 331 328 327 327 327 328 328 328 328 328 328 328 328 328 328 328 328 328 326 326 325 324 324 324 326 329 330 328 327 327 327 328 327 327 329 329 329 331 332 331 328 325 324 325 326
335 336 336 335 334 332 332 332 330 330 330 333 334 334 334 335 335 332 329 328 327 327 328 328 328 328 328 329 329 328 328 327 328 328 327 326 326 325 324 325 325 326 328 330 328 327 327 327 328 329 329 330 330 330 331 331 330 326 323 324 325 327
335 336 335 334 333 332 332 331 330 330 331 333 334 334 335 335 333 331 329 328 327 327 327 328 328 327 328 329 329 328 328 328 328 327 326 327 326 324 324 326 327 326 326 329 329 328 328 327 328 329 330 330 329 329 330 330 330 327 324 324 325 327
335 335 334 334 333 332 331 330 331 331 332 332 333 334 333 332 330 329 329 328 327 327 327 328 328 327 328 329 330 329 328 328 328 327 326 327 325 323 325 327 328 327 326 327 328 328 328 328 329 330 330 329 329 329 330 330 330 329 327 327 327 328
335 335 334 333 333 331 330 331 331 332 332 332 333 333 331 330 329 329 329 327 326 327 327 328 328 328 329 330 330 329 328 328 328 328 327 327 325 324 327 328 328 327 327 327 328 328 328 329 330 330 330 330 329 330 330 330 330 329 329 329 329 329
335 334 333 333 332 331 330 332 332 331 331 332 333 332 330 329 328 328 328 327 327 327 327 328 327 327 328 328 328 327 327 327 327 327 328 327 326 325 327 328 327 327 328 328 328 328 327 329 330 330 330 330 329 329 329 330 329 329 330 329 329 329
333 333 333 333 332 332 331 331 331 331 331 333 332 332 331 329 328 328 328 328 328 327 327 326 326 326 327 327 326 327 327 327 327 327 328 328 327 326 327 328 327 327 328 328 327 327 327 328 330 330 330 329 328 328 328 329 329 329 329 328 329 329
332 332 333 333 331 332 332 331 331 331 331 332 333 333 331 329 328 328 329 329 328 326 324 324 325 325 326 326 326 328 328 327 327 327 328 327 327 328 328 327 327 327 327 327 327 327 327 328 330 330 329 330 329 328 329 329 329 328 328 328 328 328
332 332 333 332 331 332 332 331 331 331 331 333 333 332 330 329 329 330 330 329 326 324 322 322 323 323 325 326 327 328 328 328 327 327 327 327 328 329 329 328 328 327 326 326 327 326 326 327 329 329 328 329 328 328 329 329 329 328 327 328 328 327
333 334 333 332 332 332 332 332 332 331 331 331 331 330 330 329 329 330 329 327 325 323 321 321 322 322 323 324 326 327 328 328 327 326 327 327 328 330 330 330 328 327 325 326 328 327 326 327 329 329 328 329 327 327 329 329 329 327 327 327 327 326
335 335 334 333 333 333 333 333 331 331 331 330 330 331 331 329 330 329 328 328 325 322 320 321 321 321 321 322 324 326 327 328 327 326 325 325 327 328 330 331 330 329 328 328 328 329 328 328 329 329 327 328 327 328 329 328 328 327 327 327 326 326
335 335 334 334 334 333 334 333 331 332 332 331 331 331 331 330 329 328 327 328 325 321 321 322 321 320 320 322 324 325 325 326 327 326 325 325 325 326 330 331 330 330 330 329 329 329 330 329 329 329 327 327 327 328 329 328 328 328 328 328 326 326
334 334 334 334 334 333 333 332 330 330 330 332 333 331 330 328 326 327 327 325 325 323 322 322 321 320 320 321 322 322 323 325 325 325 326 326 325 325 328 329 329 330 330 329 328 329 330 329 328 329 327 327 328 329 329 329 329 328 328 328 327 326
332 333 334 333 333 334 333 331 330 329 328 331 332 330 327 322 319 324 326 324 325 325 323 322 322 321 320 320 319 319 320 322 323 325 326 327 326 324 325 327 328 328 328 329 329 328 329 329 328 329 328 327 328 328 328 328 329 329 328 328 327 327
330 331 333 333 334 333 331 331 330 329 329 330 330 327 322 315 314 323 326 325 325 324 323 322 321 319 318 318 319 319 320 321 323 325 325 326 326 324 324 324 325 326 327 329 329 328 328 328 328 328 328 328 328 328 328 328 328 328 328 327 327 327
330 331 333 333 333 331 330 330 330 329 329 329 328 324 319 316 319 325 326 325 325 324 323 321 319 317 316 317 319 320 320 321 322 324 325 326 326 324 324 324 323 326 329 329 329 329 329 328 328 328 328 328 328 328 328 328 327 328 328 327 327 327
330 331 332 332 331 329 330 330 329 329 329 328 327 323 320 320 323 326 326 326 326 325 324 321 319 318 316 318 320 320 320 320 320 322 324 325 324 323 323 323 323 324 327 328 327 327 328 329 327 329 329 329 329 328 328 328 327 327 327 327 327 326
330 328 329 331 331 328 328 328 328 329 329 329 326 323 322 322 323 327 327 326 326 325 323 322 320 319 318 319 320 319 320 320 319 319 321 322 321 319 320 322 323 323 323 325 325 325 327 328 328 329 329 328 329 328 328 328 328 327 327 327 326 325
330 328 326 329 331 328 327 326 326 328 330 330 327 324 325 322 320 326 327 325 325 325 323 323 323 320 318 319 321 320 320 319 318 318 319 320 319 318 319 320 323 323 322 322 322 324 326 327 328 329 329 329 329 328 328 328 328 327 326 326 326 325
330 330 327 327 329 328 326 325 325 324 327 329 327 324 325 321 317 323 326 324 324 324 324 325 324 320 318 320 320 321 320 318 315 316 319 319 319 319 319 319 321 321 321 322 322 323 324 325 326 327 328 329 329 328 328 328 328 327 327 326 325 324
330 331 328 326 328 327 325 324 323 321 324 328 327 324 323 320 316 322 325 325 324 324 325 324 320 316 318 319 319 321 320 315 311 312 317 319 318 317 317 319 320 320 321 322 322 323 323 323 324 325 326 327 328 328 327 327 328 327 326 325 324 323
Wind_Speed
21 20 19 18 18 17 15 14 13 14 14 15 16 17 17 17 16 16 16 16 16 16 15 14 14 14 14 14 14 13 11 9 9 10 12 13 13 12 12 10 9 7 6 6 7 8 8 8 8 7 7 7 8 8 10 12 11 10 10 10 9 9
22 22 20 19 18 17 16 15 15 15 15 16 18 18 18 18 17 17 16 16 16 16 15 14 13 13 14 13 13 13 11 10 8 9 11 13 13 13 12 11 10 8 6 5 5 5 6 7 8 7 6 5 6 7 8 10 9 9 9 8 8 8
22 22 21 20 19 18 17 16 16 16 16 18 19 19 18 18 17 17 16 15 15 15 15 15 13 12 13 13 12 11 10 9 9 9 11 12 13 13 12 11 10 9 8 6 5 4 4 5 5 6 5 4 5 6 7 7 8 9 8 6 7 7
21 23 22 21 20 19 18 17 16 16 17 19 19 19 18 17 16 16 16 16 15 14 15 16 15 13 13 12 12 11 10 9 9 9 10 11 11 12 12 11 11 10 8 6 5 4 4 4 4 4 4 4 5 5 5 6 7 8 8 6 6 7
21 23 22 22 20 20 19 18 18 18 18 19 19 19 18 17 16 16 16 16 15 15 14 15 15 14 13 12 12 11 10 8 8 9 9 9 10 10 9 9 10 9 7 6 5 6 6 5 4 4 4 4 5 4 4 5 5 7 7 5 5 6
21 22 21 21 20 20 20 18 19 19 18 19 19 19 19 18 18 18 17 15 14 14 14 14 14 13 12 12 12 11 10 9 9 9 9 8 9 9 8 8 7 6 7 7 7 7 7 6 5 5 4 5 6 5 5 5 4 5 4 3 5 4
19 20 19 19 20 20 19 18 18 17 18 19 18 18 19 18 18 18 17 15 15 14 14 14 14 12 12 11 12 12 11 11 10 9 9 8 8 8 8 8 7 7 6 6 6 7 7 7 6 5 5 6 6 6 6 5 4 4 3 2 3 3
19 20 19 18 20 20 19 18 17 17 17 18 17 17 17 17 17 17 16 15 15 15 14 14 13 11 10 11 12 13 12 12 12 10 9 8 7 7 7 6 6 6 6 5 6 6 6 6 7 6 6 6 6 6 6 6 5 5 5 4 3 2
19 19 19 20 20 20 20 18 18 18 18 17 15 14 15 15 15 16 16 15 15 15 14 13 12 11 10 11 11 11 11 11 11 11 9 8 7 7 6 6 5 5 6 5 5 6 6 6 6 6 6 6 6 6 5 5 5 5 6 5 5 2
19 19 20 21 21 21 20 18 18 18 18 17 15 15 15 14 15 16 16 15 15 15 14 13 12 12 11 10 9 8 7 8 9 9 8 8 8 8 7 6 5 5 5 5 5 6 6 5 5 6 6 6 6 6 5 5 5 6 6 6 6 4
21 22 21 19 20 21 20 18 18 18 17 16 16 17 15 15 16 16 16 16 15 14 13 12 12 11 11 9 9 7 6 6 6 7 7 7 8 8 7 7 7 7 7 6 6 5 6 6 5 5 5 6 7 6 6 6 6 6 7 7 7 6
22 23 20 18 20 21 19 18 19 18 16 17 18 17 16 16 17 17 17 17 16 15 13 12 11 11 11 10 8 8 7 6 6 6 6 6 7 7 7 7 8 8 7 6 5 5 5 6 6 5 5 5 6 6 6 7 7 8 9 8 8 7
22 22 21 20 21 20 20 19 19 18 17 18 18 17 17 17 17 17 17 17 16 15 13 12 11 11 11 10 8 8 8 7 6 7 7 7 6 7 7 7 7 8 7 6 5 5 4 5 6 7 6 5 7 7 8 8 8 10 10 9 7 7
22 21 22 22 21 21 20 19 19 18 18 18 18 17 17 17 17 17 16 16 15 14 13 12 11 11 11 10 9 9 9 9 8 7 8 7 6 6 6 6 6 6 6 6 5 5 5 4 4 6 7 8 10 11 10 9 9 9 8 7 6 5
23 21 22 22 22 21 20 19 19 19 18 18 17 16 16 17 17 17 16 16 15 14 13 12 12 12 11 10 10 10 10 10 9 8 8 7 7 7 7 7 7 6 5 6 6 6 6 6 6 7 10 10 10 10 9 8 9 7 4 4 4 5
24 22 21 21 21 20 19 19 19 18 19 18 16 16 17 16 16 17 17 16 15 14 12 12 12 12 11 10 10 10 10 10 8 8 8 8 8 8 7 8 8 7 5 5 6 6 7 8 8 8 9 8 7 8 7 6 7 5 4 4 5 6
22 21 20 20 20 20 18 18 18 18 19 17 16 17 16 15 15 17 17 16 15 14 13 12 12 12 11 10 9 10 11 10 9 8 8 8 8 7 6 6 7 7 6 5 6 7 7 7 6 6 7 7 6 6 5 5 5 6 5 5 5 5
23 22 21 21 21 20 19 19 18 19 19 17 16 16 15 14 15 16 16 15 15 14 13 13 12 12 11 11 10 10 11 10 9 8 8 8 8 7 6 5 6 8 7 5 6 6 6 7 6 5 6 6 5 5 5 5 5 7 6 6 5 5
25 23 22 22 21 21 21 20 19 19 18 17 16 16 15 15 15 16 15 15 15 14 13 13 12 12 11 10 10 10 9 9 9 8 7 8 8 8 7 6 6 8 8 6 5 6 6 7 7 6 6 6 6 5 5 4 4 7 7 6 6 6
25 23 22 22 22 22 22 21 20 18 17 17 16 16 16 16 16 16 15 15 15 14 13 12 12 11 10 9 9 10 9 8 8 7 7 8 8 8 7 7 6 6 8 7 6 6 6 6 6 6 6 6 7 5 5 5 4 5 6 6 6 5
24 23 22 22 23 23 22 22 20 19 18 18 16 16 17 16 16 15 15 15 14 12 11 11 11 11 10 9 9 8 8 8 8 8 8 8 8 8 7 7 7 6 6 7 6 7 8 7 7 7 7 6 7 7 7 6 4 4 4 4 5 5
25 24 23 23 23 23 23 22 20 19 19 17 17 17 16 15 15 15 14 14 12 11 10 10 10 11 10 9 8 8 8 9 9 9 8 7 7 8 8 7 7 7 6 7 7 7 8 7 6 7 7 7 7 7 7 6 4 5 4 4 4 5
26 23 23 24 23 23 24 22 20 20 19 17 17 16 15 14 14 14 13 12 11 11 11 10 10 10 9 9 9 8 9 10 10 9 7 7 7 8 8 7 7 7 7 7 8 8 9 8 6 6 8 8 7 8 7 5 5 5 4 4 5 5
25 23 23 25 24 24 23 21 20 21 20 17 16 16 14 14 14 13 12 12 11 11 11 10 9 10 9 9 9 8 8 9 8 8 7 7 8 8 9 9 8 8 8 8 8 8 9 8 6 8 7 5 5 5 5 6 5 4 4 3 4 5
24 24 24 25 25 23 22 22 21 21 21 19 17 17 16 15 14 12 12 12 11 11 10 10 10 10 9 9 9 9 8 8 7 7 7 8 7 8 8 9 9 9 9 8 7 7 8 8 7 8 5 2 4 5 4 7 6 4 5 3 4 5
24 23 23 23 24 24 23 23 23 23 23 22 20 17 16 16 15 12 12 12 12 11 11 11 11 10 9 9 9 9 8 8 7 7 7 8 8 8 8 8 9 9 8 8 7 6 7 7 7 7 5 4 3 2 3 8 6 4 5 4 5 6
24 23 21 21 23 25 23 23 23 23 22 21 19 17 16 15 13 12 11 11 11 12 12 12 12 11 10 10 9 9 8 8 7 7 7 7 8 8 8 8 7 7 7 8 7 6 6 7 6 7 7 5 1 1 3 6 4 4 6 6 6 7
21 22 21 21 23 24 22 23 23 22 20 19 17 16 15 13 12 11 11 11 11 13 13 12 12 11 10 9 8 8 8 8 8 7 7 7 7 8 8 8 8 8 7 8 8 7 6 7 6 7 8 6 2 2 3 3 3 3 5 7 8 8
17 19 20 21 23 23 22 23 22 22 21 18 16 15 15 13 13 12 12 12 11 11 13 13 12 12 11 10 9 8 8 8 8 7 7 7 7 7 8 8 8 8 8 8 8 8 7 8 8 7 8 6 5 3 3 3 3 2 3 8 9 8
12 17 20 22 24 23 22 22 23 23 22 18 17 17 16 14 14 13 12 12 11 10 11 12 12 13 12 11 10 9 8 8 8 8 8 7 7 7 8 8 8 7 8 7 7 8 8 8 8 8 6 6 6 6 5 4 3 3 3 5 8 8
10 16 21 23 23 21 21 22 23 23 21 19 18 17 17 16 16 15 13 12 12 12 12 11 12 13 13 11 10 10 9 9 8 8 7 7 7 8 8 7 7 7 7 7 6 7 7 7 6 7 7 6 6 6 5 4 5 5 3 4 7 8
10 14 18 20 21 19 20 22 22 21 20 18 16 16 16 17 17 15 14 13 12 12 12 12 12 13 13 12 11 10 10 9 9 8 8 7 7 7 7 6 6 7 7 7 7 6 5 5 5 7 7 5 5 5 4 4 5 5 4 5 7 8
10 12 14 18 21 20 21 21 20 20 18 17 15 14 14 15 16 15 14 14 12 11 12 12 13 14 13 12 11 10 10 9 9 9 8 7 7 7 7 7 6 6 7 7 7 6 5 6 6 7 7 5 5 6 5 4 6 6 5 6 8 9
12 14 15 20 24 23 23 22 20 19 18 16 14 13 13 15 16 15 14 14 12 12 12 13 13 13 13 12 10 10 9 8 9 9 9 8 7 8 8 8 7 6 7 7 7 6 6 6 7 7 7 7 7 7 6 5 7 7 6 7 8 10
13 16 17 20 24 25 25 23 20 19 19 17 13 12 13 15 17 16 14 14 13 12 13 13 13 13 13 12 10 10 10 9 9 9 9 9 8 8 8 7 7 7 7 7 7 7 6 6 7 8 8 8 8 7 6 6 7 7 7 8 8 10
13 18 18 19 23 25 24 23 21 20 20 18 14 13 14 15 17 17 15 15 14 13 14 13 13 14 13 12 11 11 10 10 9 10 11 10 10 9 8 7 7 8 8 8 9 9 8 7 7 8 9 9 8 7 6 6 7 8 8 8 9 10
14 18 18 20 23 25 24 23 22 22 21 19 16 15 15 16 17 17 16 16 16 15 15 14 15 16 14 12 12 11 10 9 9 11 12 12 10 9 9 8 8 8 8 8 9 9 9 8 8 8 9 9 8 6 6 7 8 10 10 8 9 10
Wind_Direction
168 170 169 167 163 157 153 150 152 156 159 162 163 161 156 152 147 143 142 140 137 136 136 142 146 150 155 154 153 156 157 167 191 203 206 201 198 201 197 194 195 191 178 164 150 141 141 138 132 126 117 116 113 104 106 108 102 97 97 100 106 118
174 173 171 170 168 163 156 152 153 154 159 163 162 161 157 152 147 143 142 141 140 139 139 142 146 153 157 158 161 164 167 176 195 205 209 208 210 212 210 209 208 208 202 192 173 152 148 145 139 136 127 118 106 109 122 114 103 97 91 95 103 109
177 176 172 172 173 169 160 157 155 157 165 168 165 162 159 155 150 145 144 144 143 142 142 142 147 152 154 158 165 170 176 184 195 200 204 207 213 217 218 220 217 219 220 218 210 186 170 164 153 147 140 128 118 127 133 117 111 105 96 102 100 101
178 178 175 175 175 172 164 160 159 164 172 172 168 164 162 158 152 146 146 148 147 148 147 147 149 149 151 154 159 165 168 173 182 189 196 204 213 218 222 226 226 228 226 220 218 200 183 181 177 169 155 143 143 147 136 118 116 111 112 116 101 99
177 175 176 177 177 173 165 162 166 173 176 174 171 168 168 162 154 151 149 149 151 152 150 151 149 147 152 151 151 152 152 157 165 173 182 192 205 210 211 222 228 227 212 196 197 193 192 199 202 197 181 170 169 161 137 126 123 118 121 119 99 100
175 172 176 178 177 173 165 165 171 178 179 177 175 175 172 163 158 155 151 151 155 153 153 155 152 151 154 152 154 153 154 157 155 159 163 174 190 192 194 203 202 194 191 185 190 196 200 206 209 214 198 184 178 162 145 140 133 127 133 111 95 100
171 170 174 176 176 171 166 169 174 180 181 179 178 178 170 161 160 157 155 158 157 156 159 160 156 156 155 155 160 160 162 162 158 160 160 165 175 178 187 193 180 172 179 176 185 197 204 205 201 209 203 187 179 167 154 151 148 142 159 147 119 111
173 173 172 175 174 169 170 174 177 180 182 180 180 179 168 163 162 158 159 162 162 162 161 160 157 156 159 163 165 165 168 167 166 171 171 166 163 164 170 178 171 159 156 161 180 183 189 202 196 196 197 188 180 172 163 159 164 158 160 172 162 130
177 176 175 178 175 171 175 177 178 181 181 178 179 179 170 166 164 159 161 165 168 167 160 159 159 160 165 167 165 166 171 171 170 172 174 168 162 166 167 172 165 149 151 158 171 171 173 188 189 188 190 189 184 180 177 172 177 168 156 164 176 177
179 178 182 182 178 177 178 177 178 182 179 173 177 179 170 167 165 162 164 167 170 166 162 164 164 164 166 166 164 168 175 175 173 169 169 171 171 173 174 176 162 153 162 162 168 169 164 166 173 183 184 185 188 187 188 184 181 173 161 165 180 179
188 187 188 182 182 183 178 176 180 182 177 173 177 176 169 170 169 167 168 169 170 167 166 168 168 168 168 170 169 171 181 183 176 166 165 178 180 176 178 182 179 177 178 176 177 174 167 158 160 177 178 184 189 188 189 188 182 178 175 176 180 169
194 195 192 182 185 185 178 180 184 180 176 177 177 173 170 172 172 172 173 172 172 170 170 171 173 175 175 175 175 179 185 189 188 177 177 188 189 184 185 192 198 194 187 185 183 186 181 157 158 175 177 184 183 183 191 192 190 189 186 182 181 166
195 196 194 189 187 185 181 185 186 182 180 180 177 173 173 173 173 176 176 175 175 173 174 176 180 183 183 181 182 190 189 190 198 195 191 192 196 193 190 197 203 200 195 194 194 199 185 160 178 185 175 182 186 193 197 194 197 200 192 181 179 161
198 194 194 194 189 185 184 186 186 185 184 182 179 175 174 174 175 177 176 176 177 178 181 183 187 190 189 188 190 198 198 197 203 208 200 189 195 199 194 195 194 200 201 194 196 193 168 151 173 183 187 199 204 210 205 196 200 206 197 177 175 157
199 193 193 195 192 189 186 185 187 187 186 184 182 177 176 178 177 177 177 178 180 183 187 190 194 195 193 195 200 207 210 211 214 217 207 189 198 204 199 196 186 190 198 191 195 192 181 173 176 195 208 209 209 212 204 199 200 194 185 178 185 174
200 195 194 194 192 192 188 186 188 190 189 185 182 179 180 180 178 179 179 182 186 188 190 191 195 199 202 205 210 216 219 223 223 223 214 200 206 204 200 204 191 185 189 190 193 196 201 200 204 212 209 199 199 202 191 197 197 160 153 195 201 187
203 197 196 196 193 193 191 188 189 191 191 187 183 182 181 180 181 183 183 188 192 193 195 195 197 201 205 208 210 217 222 223 219 217 213 202 202 198 195 210 198 187 185 187 191 196 200 198 209 209 187 180 186 187 171 185 184 130 142 191 188 180
205 199 199 198 195 194 193 192 192 192 193 189 184 182 181 182 185 186 188 193 195 197 199 197 200 201 205 207 206 215 224 221 213 209 206 194 195 190 184 198 201 195 186 182 191 196 197 191 195 189 173 171 170 168 162 175 162 127 151 183 172 180
205 202 203 200 195 196 196 195 194 193 194 189 184 184 182 184 188 188 192 196 196 197 198 197 201 201 203 207 208 215 220 215 209 203 196 190 194 187 176 186 202 197 183 177 186 187 194 196 188 164 153 161 164 165 163 163 148 139 163 182 179 188
203 204 206 201 196 198 198 196 195 196 196 187 182 185 184 186 189 189 192 197 198 200 200 200 201 198 199 202 207 212 209 206 204 197 190 190 194 182 172 182 193 196 183 178 181 177 184 185 164 140 138 154 157 150 141 138 138 143 156 172 179 178
202 204 204 200 198 199 198 196 195 196 196 186 180 183 185 188 190 190 194 199 200 200 201 201 197 192 194 196 202 206 201 198 198 193 190 193 194 177 171 185 188 185 179 175 175 175 176 163 144 138 135 139 137 129 127 128 132 136 141 158 168 165
201 203 202 200 199 199 198 198 198 197 192 184 181 183 187 190 191 192 196 200 199 194 193 193 192 189 190 194 197 200 197 193 194 192 187 191 192 175 173 189 190 178 174 176 177 179 175 159 154 157 149 146 139 128 124 123 131 139 140 145 155 165
205 203 201 200 198 199 200 199 201 197 188 183 181 180 186 191 191 193 193 193 192 187 186 186 188 188 188 191 191 192 195 193 191 185 180 191 189 175 175 185 188 175 174 181 179 183 178 164 170 175 169 170 158 140 130 133 152 152 142 139 141 153
209 205 202 200 198 201 201 196 199 194 185 182 179 176 183 189 188 191 187 185 186 182 183 184 184 188 189 189 184 185 188 190 191 180 180 196 188 177 183 186 185 178 182 188 183 187 184 173 175 182 187 186 174 174 159 158 174 151 128 127 125 138
209 207 205 201 197 199 198 192 192 190 184 182 179 178 183 186 183 184 183 182 183 180 181 181 181 185 187 184 182 183 183 187 193 185 190 200 186 180 187 186 187 186 188 188 182 189 191 181 177 184 193 166 182 214 179 163 172 140 125 120 106 122
205 207 204 198 196 198 196 192 191 190 188 185 182 181 185 185 181 182 183 180 179 178 178 177 177 182 183 181 182 183 182 185 187 185 195 198 184 181 185 185 189 189 186 184 180 186 192 187 183 190 190 164 187 254 141 165 175 142 131 112 100 116
203 205 200 195 198 199 194 192 192 192 192 187 180 181 186 184 180 180 179 176 175 173 173 173 175 179 180 178 180 181 181 182 181 183 193 197 192 187 182 183 187 185 186 188 183 180 184 183 184 194 187 166 173 41 129 176 181 146 137 120 113 119
203 204 198 196 199 199 196 194 192 191 189 181 175 178 181 177 174 174 172 171 173 172 169 171 174 176 177 175 177 179 178 179 180 181 185 192 197 192 180 181 183 181 185 189 185 179 182 182 179 193 193 175 162 142 147 180 185 168 148 135 133 129
206 204 197 197 199 199 201 198 193 191 185 174 171 175 174 171 168 166 169 169 168 170 170 170 174 173 173 174 176 179 179 177 177 178 181 183 189 192 186 184 183 181 181 183 184 179 181 190 184 186 198 184 168 175 171 173 183 186 160 149 147 144
202 210 202 198 197 199 202 198 194 194 186 173 173 173 171 173 170 163 165 166 162 168 171 172 176 174 173 175 177 179 178 178 178 179 181 179 179 186 188 186 183 180 178 174 180 182 183 195 189 179 187 181 172 180 177 168 173 167 162 153 142 142
188 215 212 200 195 197 201 200 197 193 184 177 179 179 177 177 171 162 162 166 166 170 175 177 176 174 174 174 173 175 175 177 180 179 181 178 177 181 182 185 180 173 172 167 174 187 187 196 194 177 178 184 180 178 169 167 172 166 161 145 137 139
180 208 213 201 195 194 198 203 200 192 186 184 182 180 182 176 167 163 165 167 168 170 175 178 176 173 172 170 171 175 176 177 178 178 180 177 178 178 175 179 174 164 168 171 176 183 184 195 193 175 178 190 183 169 161 163 164 164 156 147 150 145
166 193 208 198 195 195 196 200 198 193 190 188 183 179 181 175 166 165 167 168 168 171 175 176 173 169 167 168 172 176 176 175 176 180 182 177 173 173 171 173 174 169 167 168 172 172 175 188 182 173 182 189 174 163 164 161 157 158 151 147 153 147
166 188 206 195 192 195 196 195 195 195 191 185 184 180 177 176 171 167 170 171 169 171 174 172 169 167 166 170 174 176 176 174 173 175 177 177 172 170 174 172 166 168 165 159 159 160 166 177 175 176 182 180 172 166 162 156 155 154 150 148 151 150
173 182 196 192 191 194 194 192 191 193 191 185 184 179 177 180 175 168 169 171 168 168 169 167 169 171 170 173 177 177 178 179 174 167 167 172 170 168 174 171 161 157 152 144 141 145 154 164 169 175 178 175 173 170 159 151 153 153 151 149 151 154
175 177 184 184 188 193 191 187 185 187 189 187 183 180 182 182 174 167 166 167 166 165 166 167 172 173 171 176 183 178 176 181 177 168 166 169 168 166 167 166 159 151 146 141 136 135 139 147 158 167 171 170 169 171 164 150 150 152 149 147 150 152
168 171 176 175 181 188 185 181 181 182 185 187 185 182 182 178 170 167 166 165 166 166 167 170 172 170 168 175 182 175 174 181 178 172 171 166 162 164 162 159 152 147 145 141 136 135 135 137 145 154 160 161 159 165 163 149 148 149 142 138 142 142